Regional Weather Roundup
Issued by NWS

Home | Current Version | Previous Version | Graphics & Text | Print | Product List | Glossary On
Versions: 1 2 3 4 5 6 7 8 9 10 11 12 13 14 15 16 17 18 19 20 21 22 23 24 25 26 27 28 29 30 31 32 33 34 35 36 37 38 39 40 41 42 43 44 45 46 47 48 49 50
922
ASUS43 KMPX 101810
RWRMN
WEATHER ROUNDUP FOR MINNESOTA
NATIONAL WEATHER SERVICE TWIN CITIES/CHANHASSEN MN
1200 PM CST SUN DEC 10 2017


NOTE: "FAIR" INDICATES FEW OR NO CLOUDS BELOW 12,000 FEET WITH NO
SIGNIFICANT WEATHER AND/OR OBSTRUCTIONS TO VISIBILITY. N/A MEANS
CURRENT SKY AND/OR WEATHER CONDITIONS ARE NOT AVAILABLE.

MNZ060>063-068>070-101900-
   Twin Cities Metro

CITY           SKY/WX    TMP DP  RH WIND       PRES   REMARKS
TWIN CITIES    CLOUDY    28  22  78 NW10      30.00F WCI  19
6HR MIN TEMP:  24; 6HR MAX TEMP:  29;

ST PAUL        CLOUDY    28  21  75 N12       30.01F WCI  18
CRYSTAL        CLOUDY    27  18  69 N10       29.99S WCI  17
BLAINE         CLOUDY    28  21  74 N9        29.99S WCI  20
LAKEVILLE      CLOUDY    27  21  80 NW6       29.99S WCI  20
EDEN PRAIRIE   CLOUDY    29  21  72 N12       29.99S WCI  19
6HR MIN TEMP:  26; 6HR MAX TEMP:  29;

SOUTH ST PAUL  CLOUDY    29  21  73 N8        29.99S WCI  21
LAKE ELMO      CLOUDY    28  23  80 NW9       29.99F WCI  20
$$
MNZ001>005-007-008-013>017-022>024-027-028-101900-
   Northwest Minnesota

CITY           SKY/WX    TMP DP  RH WIND       PRES   REMARKS
BEMIDJI        CLOUDY    20  16  86 NW6       30.00R WCI  12
HALLOCK        CLOUDY    23  19  86 CALM      30.05R
ROSEAU         PTSUNNY   21  16  79 CALM      30.02R
WARROAD        MOSUNNY   19  14  79 CALM      30.01S
THIEF RVR FALL CLOUDY    22  18  85 CALM      30.03
CROOKSTON      CLOUDY    21  18  86 N5        30.05F WCI  15
FOSSTON        CLOUDY    21  16  79 CALM      30.01F
DETROIT LAKES  CLOUDY    23  21  93 N6        30.02F WCI  16
MOORHEAD       SUNNY     25  18  74 CALM      30.06F
PARK RAPIDS    CLOUDY    23  17  78 NW6       29.99R WCI  16
MAHNOMEN       CLOUDY    21  17  86 N6        30.02F WCI  13
$$
MNZ006-009>011-018-025>026-101900-
   North Central Minnesota

CITY           SKY/WX    TMP DP  RH WIND       PRES   REMARKS
BAUDETTE       CLOUDY    17  12  80 CALM      30.00S
FLAG ISLAND    PTSUNNY   18  10  73 CALM      30.00S
INTL FALLS     CLOUDY    16   9  74 N6        29.99R HAZE    WCI   7
6HR MIN TEMP:  14; 6HR MAX TEMP:  17; 6HR PCP: TRACE;

WASKISH        CLOUDY    19  16  86 CALM      30.00S
BIG FORK       FLURRIES  19  14  79 CALM      29.98R
GRAND RAPIDS   FLURRIES  21  15  78 NW12      29.99F WCI   9
ORR            FLURRIES  16   9  73 NW6       29.94S WCI   7
COOK           FLURRIES  16   9  73 NW8       29.96F WCI   5
WALKER         CLOUDY    22  17  81 W5        29.98F WCI  15
$$
MNZ012-019>021-037-101900-
   Northeast Minnesota

CITY           SKY/WX    TMP DP  RH WIND       PRES   REMARKS
DULUTH         CLOUDY    19  12  74 NW10      29.94F WCI   7
6HR MIN TEMP:  18; 6HR MAX TEMP:  20; 6HR PCP: TRACE;

ELY            CLOUDY    16   7  67 N7        29.94S WCI   6
HIBBING        CLOUDY    16  11  80 N8        29.96F WCI   5
EVELETH        LGT SNOW  16   7  69 N7        29.96F WCI   6
DULUTH HARBOR  CLOUDY    23  16  74 NW9       30.01S WCI  13
TWO HARBORS    MOSUNNY   23  12  63 NW6       29.95S WCI  16
G MARAIS ARPRT CLOUDY     9   0  66 NW3       29.88S
$$
MNZ029>031-032-039>041-046>048-054>057-064-101900-
   West Central Minnesota

CITY           SKY/WX    TMP DP  RH WIND       PRES   REMARKS
FERGUS FALLS   CLOUDY    25  19  80 NW14      30.08R WCI  13
MORRIS         SUNNY     30  21  69 NW16      30.02F WCI  19
ALEXANDRIA     CLOUDY    27  20  75 N7        30.01R WCI  19
ELBOW LAKE     PTSUNNY   26  20  80 NW12      30.04S HAZE    WCI  15
WADENA         CLOUDY    25  18  74 W6        30.00S WCI  18
GLENWOOD       CLOUDY    28  21  74 NW9       30.02R WCI  20
BENSON         SUNNY     30  21  69 N14       30.04F WCI  20
ORTONVILLE     MOSUNNY   32  21  64 NW9       30.04F WCI  24
MADISON        SUNNY     36  27  69 NW10      30.05S
WILLMAR        FAIR      30  21  69 NW15      30.03S WCI  19
$$
MNZ033>034-036-042>043-049>051-058-059-101900-
   Central Minnesota

CITY           SKY/WX    TMP DP  RH WIND       PRES   REMARKS
ST CLOUD       PTSUNNY   28  21  75 NW12      30.01R WCI  18
6HR MIN TEMP:  25; 6HR MAX TEMP:  29;

SAUK CENTRE    CLOUDY    26  20  77 N8        30.02R WCI  18
PAYNESVILLE    CLOUDY    28  23  80 NW7       30.03R WCI  21
AITKIN         CLOUDY    23  16  74 NW6       29.97S WCI  16
PINE RIVER     CLOUDY    23  16  74 NW5       30.01F WCI  17
BRAINERD       CLOUDY    26  16  65 N10       30.00R WCI  16
STAPLES        CLOUDY    27  18  69 W8        30.00S WCI  18
LONG PRAIRIE   CLOUDY    27  21  80 W8        30.02R WCI  18
LITTLE FALLS   CLOUDY    28  14  54 N3        30.01R
LITCHFIELD     PTSUNNY   30  25  80 NW12      30.02R WCI  21
BUFFALO        CLOUDY    29  21  73 NW6       30.02R WCI  23
MAPLE LAKE     PTSUNNY   29  23  78 NW6       30.01R WCI  23
HUTCHINSON     CLOUDY    29  23  78 W10       30.03R WCI  20
$$
MNZ037-044-045-052-053-101900-
   East Central Minnesota

CITY           SKY/WX    TMP DP  RH WIND       PRES   REMARKS
PRINCETON      CLOUDY    28  21  74 NW7       30.01R WCI  21
MORA           PTSUNNY   27  19  74 NW9       30.01R WCI  17
CAMBRIDGE      CLOUDY    28  19  69 N7        29.99R WCI  21
RUSH CITY      CLOUDY    28  19  68 N8        29.98F WCI  20
MOOSE LAKE     CLOUDY    25  16  68 NW7       29.96F WCI  17
HINCKLEY       FAIR      28  19  69 NW9       29.99R WCI  20
CLOQUET        CLOUDY    21  12  68 NW9       29.95F WCI  11
MCGREGOR       CLOUDY    25  18  74 W8        29.98F WCI  16
$$
MNZ071>073-080-081-089-090-097-098-101900-
   Southwest Minnesota

CITY           SKY/WX    TMP DP  RH WIND       PRES   REMARKS
MONTEVIDEO     SUNNY     36  25  64 N10       30.04S
GRANITE FALLS  SUNNY     35  25  66 NW17      30.06S WCI  25
CANBY          SUNNY     37  27  68 W10       30.06R
MARSHALL       SUNNY     35  25  66 NW14      30.04S WCI  26
REDWOOD FALLS  SUNNY     33  21  61 NW10G21   30.03S WCI  25
OLIVIA         SUNNY     32  25  74 NW17      30.01F WCI  21
PIPESTONE      SUNNY     36  27  69 NW9       30.02F
WINDOM         CLOUDY    34  19  55 NW17      30.01F WCI  23
JACKSON        CLOUDY    36  27  69 MISG      30.01F
TRACY          SUNNY     36  27  72 NW10      30.03S
$$
MNZ065>067-074>077-082>085-091>093-101900-
   South Central Minnesota

CITY           SKY/WX    TMP DP  RH WIND       PRES   REMARKS
MANKATO        CLOUDY    29  23  78 NW12      30.01S WCI  19
NEW ULM        SUNNY     28  21  74 NW13      30.02S WCI  18
ST JAMES       SUNNY     34  23  64 NW16G24   30.03R WCI  23
FAIRMONT       SUNNY     34  23  64 NW17      30.02R WCI  23
GLENCOE        CLOUDY    30  25  81 W8        30.01R WCI  22
FARIBAULT      CLOUDY    30  23  74 NW8       29.99S WCI  23
WASECA         CLOUDY    32  27  80 N10       30.01R WCI  24
ALBERT LEA     PTSUNNY   30  21  69 NW8       29.98S WCI  23
$$
MNZ078>079-086>088-094>096-101900-
   Southeast Minnesota

CITY           SKY/WX    TMP DP  RH WIND       PRES   REMARKS
ROCHESTER      CLOUDY    27  22  81 N13       29.96S WCI  16
6HR MIN TEMP:  22; 6HR MAX TEMP:  27;

RED WING       CLOUDY    28  18  64 NW7       29.98F WCI  21
STANTON        CLOUDY    30  23  74 NW7       29.98S WCI  23
DODGE CENTER   CLOUDY    27  21  80 NW13      29.97R WCI  16
WINONA           N/A     30  23  74 NW10      29.99S WCI  21
AUSTIN         CLOUDY    28  21  74 N12       29.98R WCI  18
PRESTON        CLOUDY    27  21  79 NW12      29.97R WCI  16
$$
ABBREVIATIONS USED IN REMARKS
   TC - TEMPERATURES IN CELSIUS
  WCI - WIND CHILL INDEX
   HX - HEAT INDEX
  VSB - VISIBILITY
$$




USA.gov is the U.S. government's official web portal to all federal, state and local government web resources and services.